Regional Weather Roundup
Issued by NWS Charleston, SC

Current Version | Previous Version | Graphics & Text | Print | Product List | Glossary On
Versions: 1 2 3 4 5 6 7 8 9 10 11 12 13 14 15 16 17 18 19 20 21 22 23 24 25 26 27 28 29 30 31 32 33 34 35 36 37 38 39 40 41 42 43 44 45 46 47 48 49 50
000
ASUS42 KCHS 301128
RWRCHS

REGIONAL WEATHER ROUNDUP
NATIONAL WEATHER SERVICE CHARLESTON SC
700 AM EDT SAT JUL 30 2016

NOTE: "FAIR" INDICATES FEW OR NO CLOUDS BELOW 12,000 FEET WITH NO
SIGNIFICANT WEATHER AND/OR OBSTRUCTIONS TO VISIBILITY.

NOT ALL STATIONS ARE QUALITY CONTROLLED. USE DATA WITH CAUTION...
ESPECIALLY DEWPOINT OBSERVATIONS.

SCZ027-030-031-034>040-042>050-301200-
...SOUTHEAST SOUTH CAROLINA...

CITY           SKY/WX    TMP DP  RH WIND       PRES   REMARKS
N CHARLESTON   PTCLDY    81  74  79 W7        29.97R
WATERFRONT PRK   N/A     83  77  81 VRB3      29.93R HX  92
MOUNT PLEASANT FAIR      82  75  78 CALM      29.98R
JOHNS ISLAND   FAIR      82  75  78 W3        29.98R
PINOPOLIS        N/A     81  77  89 SW7       29.89R
MONCKS CORNER  FAIR      75  72  88 CALM      29.98R FOG
SUMMERVILLE    FAIR      77  77 100 CALM      30.00
BEAUFORT MCAS  CLEAR     80  71  74 W6        29.98R
BEAUFORT ARPT  FAIR      81  72  74 W7        29.99R
HILTON HEAD IS CLEAR     82  73  74 W9        29.99R
WALTERBORO     MOSUNNY   79  77  94 W3        30.00R
ALLENDALE      FAIR      75  72  88 CALM      29.99R

...SOUTHERN MIDLANDS AND PEE DEE...

CITY           SKY/WX    TMP DP  RH WIND       PRES   REMARKS
GEORGETOWN     FAIR      79  77  94 W6        29.98R
KINGSTREE      FAIR      73  72  94 CALM      29.98R
ORANGEBURG     CLEAR     74  72  93 CALM      29.99R
BARNWELL       NOT AVBL
AIKEN          FAIR      73  70  88 CALM      30.04R
MANNING        FAIR      75  64  69 CALM      29.98R
COLUMBIA       PTCLDY    77  70  79 CALM      29.97R
SUMTER         FOG       77  73  88 S2        29.96R VSB 1
FLORENCE       CLEAR     75  73  93 CALM      29.96R
MYRTLE BEACH   PTCLDY    82  72  69 SW6       29.97R
N MYRTLE BEACH PTCLDY    82  79  90 SW5       29.96R HX  92

$$

GAZ063-065-086>088-099>101-113>116-118-119-134>141-150-301200-
...SOUTHEAST GEORGIA...

CITY           SKY/WX    TMP DP  RH WIND       PRES   REMARKS
SAVANNAH ARPT  CLEAR     78  71  79 W5        30.00R
HUNTER AAF     CLEAR     78  74  88 W5        29.97R
FORT STEWART   CLEAR     78  71  80 SW5       29.98R
STATESBORO     CLEAR     79  74  84 W5        30.01R
SYLVANIA       NOT AVBL
CLAXTON        FAIR      75  74  94 SW3       30.01R FOG

...CSRA...CENTRAL AND FAR SOUTHEAST GEORGIA...

CITY           SKY/WX    TMP DP  RH WIND       PRES   REMARKS
THOMSON        NOT AVBL
AUGUSTA-BUSH   CLEAR     73  70  90 CALM      29.98R
AUGUSTA-DANIEL CLEAR     80  69  69 W3        30.00R
SWAINSBORO     FAIR      75  72  88 CALM      30.03R
VIDALIA        CLEAR     77  72  83 CALM      30.03R
EASTMAN        FAIR      77  68  73 CALM      30.05R
HAZLEHURST     FAIR      79  76  90 CALM      30.02R
ALMA           CLEAR     74  71  91 W3        30.02R
WAYCROSS       PTCLDY    77  76  98 W5        30.03R
JESUP          FAIR      73  73 100 CALM      30.02R
BAXLEY         FAIR      77  77 100 CALM      30.02R
BRUNSWICK      CLEAR     77  77 100 W3        30.02R
SAINT SIMONS   CLEAR     79  75  87 W7        30.00R

$$

SCZ027-028-034-036>038-045-046-048>050-GAZ119-141-301200-
...LAKE AND SUPPLEMENTAL COASTAL OBSERVATIONS...

STATION/POSITION TIME  TEMP    WIND        PRES    WAVE   SWELL
                       AIR SEA DIR/SP/G            HT/PER HT/PER/DIR
                 (UTC) (F)     (DEG/KT/KT) (MB)    (FT/S) (FT/S/D)
WINYAH BAY       1000   82     250/  4     1013.0S
LAKE MURRAY      1000   81     250/  6/  7 1013.9R
ACE BASIN NERRS  1000   81     230/  1     1014.0S
FORT PULASKI     1100   81 87  250/  6/  9 1016.0R
SAPELO ISLAND    1100   80     270/  6     1016.0R

$$

ANZ835-935-AMZ111-154-330-350-352-354-370-450-454-472-301200-
...C-MAN AND BUOY OBSERVATIONS...

STATION/POSITION TIME  TEMP    WIND        PRES    WAVE   SWELL
                       AIR SEA DIR/SP/G            HT/PER HT/PER/DIR
                 (UTC) (F)     (DEG/KT/KT) (MB)    (FT/S) (FT/S/D)
BUOY 41004       1050   85 86  230/ 16/ 17 1013.9R   4/ 5
BUOY 41008       1050   84 86  270/ 12/ 14 1015.3R   3/ 5   2/130/ 8
FOLLY BEACH CMAN 1100   83     250/  6/ 10 1015.0R
CAPERS NEARSHORE 1008   86 85  260/ 14/ 17 1013.6R
FRIPP NEARSHORE  1108   84 87  280/ 14/ 16 1014.6R


STATION/POSITION TIME  TEMP    WIND        PRES    WAVE   SWELL
                       AIR SEA DIR/SP/G            HT/PER HT/PER/DIR
                 (UTC) (F)     (DEG/KT/KT) (MB)    (FT/S) (FT/S/D)
5E ST. MARYS GA  1101      85                N/A     2/ 4
FRYING PAN BUOY  1100   85 85  240/ 16/ 19 1014.3R
BUOY 41025       1050   84 86   40/  4/  6 1014.7R   2/ 6   2/220/ 6
CAPE LOOKOUT NC  1100   83     180/  3/  6 1014.3R
BUOY 41002       1050   84 84  210/ 10/ 12 1017.0R   3/ 6   2/220/ 6
BUOY 41010       1020   85 86  200/ 10/ 12 1016.7R
ST AUGUSTINE FL  1100   78 84  210/  4/  5 1017.8R


$$




USA.gov is the U.S. government's official web portal to all federal, state and local government web resources and services.